Location: Newark
(31.5350°N, 35.0986°E)
Time: 15:56:14
(UTC+00:00)

Transit 4A - All Passes

Search period start: 18 October 2019 00:00
Search period end: 28 October 2019 00:00
Orbit: 867 x 978 km, 66.8° (Epoch: 17 October)

Date Brightness Start Highest point End Pass type
(mag) Time Alt. Az. Time Alt. Az. Time Alt. Az.
18 Oct - 01:57:00 10° S 02:03:13 58° ESE 02:09:23 10° NE visible
18 Oct - 03:45:14 10° WSW 03:49:55 21° NW 03:54:34 10° N daylight
18 Oct - 11:06:12 10° N 11:10:57 24° NE 11:15:35 10° ESE daylight
18 Oct - 12:51:53 10° NW 12:57:24 42° WSW 13:02:48 10° S daylight
19 Oct - 02:06:07 10° SSW 02:12:30 88° ESE 02:18:50 10° NNE visible
19 Oct - 03:56:25 10° W 03:59:36 14° NW 04:02:46 10° NNW daylight
19 Oct - 11:15:01 10° N 11:20:29 36° ENE 11:25:48 10° SE daylight
19 Oct - 13:01:47 10° NW 13:06:33 26° WSW 13:11:15 10° SSW daylight
20 Oct - 00:32:06 10° SE 00:36:04 17° ESE 00:40:00 10° ENE visible
20 Oct - 02:15:34 10° SW 02:21:52 61° WNW 02:28:05 10° NNE visible
20 Oct - 11:24:05 10° NNW 11:29:54 57° ENE 11:35:36 10° SE daylight
20 Oct - 13:12:15 10° WNW 13:15:38 16° WSW 13:19:00 10° SW daylight
21 Oct - 00:39:56 10° SSE 00:45:10 28° ESE 00:50:23 10° NE visible
21 Oct - 02:25:21 10° SW 02:31:17 40° WNW 02:37:10 10° N visible
21 Oct - 09:49:52 10° NNE 09:52:06 12° NE 09:54:19 10° ENE daylight
21 Oct - 11:33:19 10° NNW 11:39:16 89° ENE 11:45:03 10° SSE daylight
22 Oct - 00:48:23 10° S 00:54:21 43° ESE 01:00:15 10° NE visible
22 Oct - 02:35:32 10° WSW 02:40:48 27° NW 02:46:03 10° N visible
22 Oct - 09:57:46 10° N 10:01:48 19° NE 10:05:47 10° E daylight
22 Oct - 11:42:45 10° NW 11:48:32 57° WSW 11:54:10 10° S daylight
23 Oct - 00:57:16 10° SSW 01:03:36 68° ESE 01:09:50 10° NNE visible
23 Oct - 02:46:13 10° W 02:50:25 18° NW 02:54:36 10° N visible
23 Oct - 10:06:23 10° N 10:11:24 28° NE 10:16:19 10° ESE daylight
23 Oct - 11:52:26 10° NW 11:57:43 35° WSW 12:02:55 10° S daylight
23 Oct - 23:24:53 10° SE 23:27:18 12° ESE 23:29:41 10° E visible
24 Oct - 01:06:31 10° SSW 01:12:54 80° WNW 01:19:13 10° NNE visible
24 Oct - 02:57:51 10° WNW 03:00:09 12° NW 03:02:26 10° NNW visible
24 Oct - 10:15:17 10° N 10:20:54 43° ENE 10:26:22 10° SE daylight
24 Oct - 12:02:29 10° WNW 12:06:50 22° WSW 12:11:09 10° SSW daylight
24 Oct - 23:31:50 10° SSE 23:36:22 21° ESE 23:40:51 10° ENE visible
25 Oct - 01:16:06 10° SW 01:22:17 52° WNW 01:28:24 10° NNE visible
25 Oct - 10:24:24 10° NNW 10:30:18 67° ENE 10:36:03 10° SSE daylight
25 Oct - 12:13:24 10° WNW 12:15:54 13° WSW 12:18:24 10° SW daylight
25 Oct - 23:39:56 10° SSE 23:45:30 32° ESE 23:51:01 10° NE visible
26 Oct - 01:26:01 10° WSW 01:31:44 35° WNW 01:37:24 10° N visible
26 Oct - 08:49:35 10° NNE 08:52:38 14° NE 08:55:38 10° E daylight
26 Oct - 10:33:43 10° NNW 10:39:37 78° WSW 10:45:23 10° SSE daylight
26 Oct - 23:48:35 10° S 23:54:42 51° ESE 00:00:45 10° NE visible
27 Oct - 01:36:21 10° WSW 01:41:17 23° NW 01:46:11 10° N visible
27 Oct - 08:57:51 10° N 09:02:18 21° NE 09:06:39 10° ESE daylight
27 Oct - 10:43:14 10° NW 10:48:51 48° WSW 10:54:22 10° S daylight
